Regional Weather Roundup
Issued by NWS New Orleans/Baton Rouge, LA

Home | Current Version | Previous Version | Text Only | Print | Product List | Glossary On
Versions: 1 2 3 4 5 6 7 8 9 10 11 12 13 14 15 16 17 18 19 20 21 22 23 24 25 26 27 28 29 30 31 32 33 34 35 36 37 38 39 40 41 42 43 44 45 46 47 48 49 50
000
ASUS44 KLIX 190410
RWRLIX
NEW ORLEANS REGIONAL WEATHER ROUNDUP
NATIONAL WEATHER SERVICE NEW ORLEANS LA
1100 PM CDT THU SEP 18 2014

NOTE: "FAIR" INDICATES FEW OR NO CLOUDS BELOW 12,000 FEET WITH NO
      SIGNIFICANT WEATHER AND/OR OBSTRUCTIONS TO VISIBILITY.
      SKY/WX - SKY CONDITION AND SIGNIFICANT WEATHER.
      TMP - AIR TEMPERATURE.     DP    - DEWPOINT TEMPERATURE.
      RH  - RELATIVE HUMIDITY.   PRES  - PRESSURE.
      HI  - HEAT INDEX.          WCI   - WIND CHILL INDEX.

*  THESE STATIONS ARE NOT NWS OR FAA STATIONS AND ARE NOT UNDER
   NWS QUALITY CONTROL.

LAZ038-040-048-061>063-065>067-069-190500-
SOUTHEAST LOUISIANA

CITY           SKY/WX    TMP DP  RH WIND       PRES   REMARKS
N.O. AUDUBON     N/A     78  72  82 MISG        N/A
N.O. INTL ARPT CLOUDY    78  70  76 CALM      29.92F
N.O. LAKEFRONT CLOUDY    79  71  76 E10       29.93S
N.O. DOWNTOWN* MOCLDY    81  68  65 CALM      29.93S
SLIDELL        LGT RAIN  74  69  85 NW6       29.93F
BATON ROUGE    LGT RAIN  72  71  97 NE3       29.94S
BOOTHVILLE     CLOUDY    79  75  87 SE5       29.93S
BELLE CHASSE   CLOUDY    75  71  87 CALM      29.92S
BOGALUSA*      LGT RAIN  74  68  81 NW5       29.96F
GALLIANO*      NOT AVBL
NEW ROADS*     MOCLDY    71  70  96 CALM      29.94R
GONZALES*      CLOUDY    73  73 100 CALM      29.92F
HAMMOND*       CLOUDY    72  68  88 E9        29.97S
HOUMA*         DRIZZLE   74  70  87 NE3       29.91F
PORT FOURCHON* MOCLDY    81  75  83 CALM      29.95F

$$

MSZ070-080>082-190500-
SOUTHERN MISSISSIPPI

CITY           SKY/WX    TMP DP  RH WIND       PRES   REMARKS
MCCOMB         CLOUDY    71  68  90 CALM      29.97S
GULFPORT       CLOUDY    73  71  93 CALM      29.94R
BILOXI         CLOUDY    73  70  91 NE3       29.94R
PASCAGOULA     CLOUDY    73  69  87 CALM      29.94R

$$

COASTAL OBSERVATIONS
LAKE AND NEARSHORE STATIONS

STATION/POSITION TIME  TEMP    WIND        PRES    WAVE
                       AIR SEA DIR/SP/G            HT/PER
                 (UTC) (F)     (DEG/KT/KT) (MB)    (FT/S)
PASCAGOULA       0400   77                 1013.3
WAVELAND YACHT   0400   78                 1012.9
GRAND ISLE       0400   80 86              1013.7
SOUTHWEST PASS   0400   82 91              1013.6
NEW CANAL        0400   80 83              1013.8
SHELL BEACH      0400   79 82              1013.2

OFFSHORE STATIONS

STATION/POSITION TIME  TEMP    WIND        PRES    WAVE
                       AIR SEA DIR/SP/G            HT/PER
                 (UTC) (F)     (DEG/KT/KT) (MB)    (FT/S)
64 S DAUPHIN ISL 0348   82 85  130/  4/  4 1013.8    1

$$



USA.gov is the U.S. government's official web portal to all federal, state and local government web resources and services.